Terminal Aerodrome Forecast
Issued by NWS

Home | Current Version | Previous Version | Text Only | Print | Product List | Glossary On
Versions: 1 2 3 4 5 6 7 8 9 10 11 12 13 14 15 16 17 18 19 20 21 22 23 24 25 26 27 28 29 30 31 32 33 34 35 36 37 38 39 40 41 42 43 44 45 46 47 48 49 50
000
FTAK31 PANC 220538
TAFASN
TAF
PASN 220538Z 2206/2306 09009KT P6SM FEW025 OVC060
      TEMPO 2206/2208 BKN025
     FM220800 09009KT 4SM BR BKN008 OVC012
     FM221300 08013KT 1SM BR BKN003 OVC005=

USA.gov is the U.S. government's official web portal to all federal, state and local government web resources and services.